Sand Key, FL current weather conditions

sailwx.info

Wind from 350 at 21 knots gusting 27

Air temperature 16.4° C
Dewpoint 12.0° C

Last reported at 2020-Jan-21 16:00 UTC.
Time now 2020-Jan-21 16:56 UTC

Location: N 24°27' W 081°53'.
View on Google Maps.

See reports from other nearby stations

  
Tides and Currents Weather Stations Pressure Air Temp Water Temp Dewpoint Dewpoint Depression Visibility Wind Speed Wind Dir Waves Ship Positions
date/time (UTC)wind fromknots sea level pressurealtimeterstation pressurevisibilityair tempwater tempwave heightnotes
2020-Jan-21 16:00 350 21 gusting 27 16.4
2020-Jan-21 15:50 350 21 gusting 26 16.5
2020-Jan-21 15:40 350 22 gusting 27 16.3
2020-Jan-21 15:30 360 22 gusting 25 16.3
2020-Jan-21 15:20 360 24 gusting 27 16.3
2020-Jan-21 15:10 360 22 gusting 27 16.3
2020-Jan-21 15:00 360 22 gusting 27 16.2
2020-Jan-21 14:50 360 22 gusting 27 16.3
2020-Jan-21 14:40 360 21 gusting 27 16.2
2020-Jan-21 14:30 360 21 gusting 25 16.3
2020-Jan-21 14:20 360 20 gusting 25 16.4
2020-Jan-21 14:10 360 21 gusting 27 16.6
2020-Jan-21 14:00 360 21 gusting 26 16.6
2020-Jan-21 13:50 360 20 gusting 24 16.6
2020-Jan-21 13:40 360 20 gusting 25 16.6
2020-Jan-21 13:30 360 20 gusting 25 16.5
2020-Jan-21 13:20 010 20 gusting 24 16.5
2020-Jan-21 13:10 360 20 gusting 24 16.5
2020-Jan-21 13:00 360 20 gusting 25 16.5
2020-Jan-21 12:50 010 20 gusting 25 16.4
2020-Jan-21 12:40 360 20 gusting 24 16.5
2020-Jan-21 12:30 010 20 gusting 24 16.6
2020-Jan-21 12:20 010 20 gusting 24 16.7
2020-Jan-21 12:10 010 20 gusting 22 16.7
2020-Jan-21 12:00 360 20 gusting 24 16.7
2020-Jan-21 11:50 010 20 gusting 22 16.8
2020-Jan-21 11:40 010 19 gusting 22 16.8
2020-Jan-21 11:30 010 19 gusting 22 16.8
2020-Jan-21 11:20 010 19 gusting 22 16.9
2020-Jan-21 11:10 010 19 gusting 21 16.9
2020-Jan-21 11:00 010 19 gusting 21 16.9
2020-Jan-21 10:50 010 19 gusting 22 17.0
2020-Jan-21 10:40 010 19 gusting 22 17.1
2020-Jan-21 10:30 010 19 gusting 24 17.2
2020-Jan-21 10:20 010 20 gusting 24 17.2
2020-Jan-21 10:10 010 20 gusting 22 17.3
2020-Jan-21 10:00 010 20 gusting 25 17.5
2020-Jan-21 09:50 010 19 gusting 24 17.6
2020-Jan-21 09:40 010 19 gusting 21 17.7
2020-Jan-21 09:30 010 19 gusting 21 17.8
2020-Jan-21 09:20 010 19 gusting 21 17.8
2020-Jan-21 09:10 010 19 gusting 22 17.8
2020-Jan-21 09:00 010 20 gusting 24 17.9
2020-Jan-21 08:50 010 19 gusting 24 18.0
2020-Jan-21 08:40 010 19 gusting 21 18.1
2020-Jan-21 08:30 010 19 gusting 22 18.4
2020-Jan-21 08:20 010 19 gusting 22 18.5
2020-Jan-21 08:10 010 19 gusting 21 18.5
2020-Jan-21 08:00 020 19 gusting 22 18.6
2020-Jan-21 07:50 010 18 gusting 21 18.7
2020-Jan-21 07:40 020 18 gusting 20 18.6
2020-Jan-21 07:30 020 18 gusting 21 18.8
2020-Jan-21 07:20 020 17 gusting 20 18.9
2020-Jan-21 07:10 020 17 gusting 20 18.9
2020-Jan-21 07:00 020 17 gusting 21 19.0
2020-Jan-21 06:50 020 17 gusting 20 18.9
2020-Jan-21 06:40 020 17 gusting 20 19.1
2020-Jan-21 06:30 020 17 gusting 20 19.2
2020-Jan-21 06:20 030 17 gusting 20 19.3
2020-Jan-21 06:10 020 18 gusting 21 19.4
2020-Jan-21 06:00 030 18 gusting 24 19.5
2020-Jan-21 05:50 030 19 gusting 22 19.6
2020-Jan-21 05:40 030 19 gusting 21 19.8
2020-Jan-21 05:30 020 19 gusting 20 19.8
2020-Jan-21 05:20 030 19 gusting 21 19.9
2020-Jan-21 05:10 030 19 gusting 21 20.0
2020-Jan-21 05:00 030 18 gusting 22 20.2
2020-Jan-21 04:50 030 18 gusting 20 20.3
2020-Jan-21 04:40 020 19 gusting 22 20.4
2020-Jan-21 04:30 020 20 gusting 24 20.5
2020-Jan-21 04:20 020 20 gusting 25 20.4
2020-Jan-21 04:10 020 21 gusting 26 20.3
2020-Jan-21 04:00 020 21 gusting 26 20.3
2020-Jan-21 03:50 020 22 gusting 27 20.2
2020-Jan-21 03:40 020 22 gusting 27 20.2
2020-Jan-21 03:30 020 21 gusting 27 20.2
2020-Jan-21 03:20 020 20 gusting 26 20.2
2020-Jan-21 03:10 020 21 gusting 27 20.1
2020-Jan-21 03:00 020 21 gusting 26 20.1
2020-Jan-21 02:50 010 20 gusting 26 20.1
2020-Jan-21 02:40 020 20 gusting 26 20.1
2020-Jan-21 02:30 010 21 gusting 26 20.3
2020-Jan-21 02:20 010 24 gusting 27 20.2
2020-Jan-21 02:10 360 21 gusting 26 20.1
2020-Jan-21 02:00 010 22 gusting 27 20.0
2020-Jan-21 01:50 010 22 gusting 26 19.9
2020-Jan-21 01:40 360 21 gusting 26 19.9
2020-Jan-21 01:30 360 22 gusting 26 19.9
2020-Jan-21 01:20 360 21 gusting 27 19.8
2020-Jan-21 01:10 360 20 gusting 26 19.8
2020-Jan-21 01:00 360 21 gusting 26 19.5
2020-Jan-21 00:50 350 21 gusting 28 19.5
2020-Jan-21 00:40 350 20 gusting 25 19.5
2020-Jan-21 00:30 350 20 gusting 26 19.5
2020-Jan-21 00:20 350 20 gusting 24 19.5
2020-Jan-21 00:10 360 20 gusting 25 19.6
2020-Jan-21 00:00 360 20 gusting 24 19.7
2020-Jan-20 23:50 350 20 gusting 22 19.7
2020-Jan-20 23:40 350 19 gusting 22 19.7
2020-Jan-20 23:30 350 19 gusting 22 19.6
2020-Jan-20 23:20 350 18 gusting 22 19.6
2020-Jan-20 23:10 350 19 gusting 22 19.5
2020-Jan-20 23:00 360 19 gusting 21 19.5
2020-Jan-20 22:50 350 18 gusting 20 19.6
2020-Jan-20 22:40 350 17 gusting 20 19.7
2020-Jan-20 22:30 350 18 gusting 20 19.8
2020-Jan-20 22:20 350 18 gusting 20 19.7
2020-Jan-20 22:10 350 18 gusting 20 19.8
2020-Jan-20 22:00 350 19 gusting 21 19.9
2020-Jan-20 21:50 350 20 gusting 26 20.0
2020-Jan-20 21:40 350 20 gusting 24 20.1
2020-Jan-20 21:30 350 19 gusting 21 20.2
2020-Jan-20 21:20 350 19 gusting 21 20.4
2020-Jan-20 21:10 350 18 gusting 21 20.5
2020-Jan-20 21:00 350 19 gusting 22 20.6
2020-Jan-20 20:50 350 19 gusting 21 20.7
2020-Jan-20 20:40 350 20 gusting 22 20.9
2020-Jan-20 20:30 350 18 gusting 20 20.9
2020-Jan-20 20:20 350 17 gusting 20 21.0
2020-Jan-20 20:10 350 15 gusting 19 21.1
2020-Jan-20 20:00 350 15 gusting 19 21.3
2020-Jan-20 19:50 350 15 gusting 19 21.4
2020-Jan-20 19:40 350 15 gusting 19 21.5
2020-Jan-20 19:30 350 15 gusting 19 21.5
2020-Jan-20 19:20 360 14 gusting 18 21.5
2020-Jan-20 19:10 350 15 gusting 19 21.5
2020-Jan-20 19:00 350 15 gusting 19 21.5
2020-Jan-20 18:50 350 14 gusting 18 21.6
2020-Jan-20 18:40 350 14 gusting 17 21.5
2020-Jan-20 18:30 350 15 gusting 19 21.5
2020-Jan-20 18:20 350 15 gusting 19 21.5
2020-Jan-20 18:10 350 15 gusting 18 21.5
2020-Jan-20 18:00 350 15 gusting 19 21.8
2020-Jan-20 17:50 350 13 gusting 15 21.9
2020-Jan-20 17:40 350 14 gusting 17 21.8
2020-Jan-20 17:30 350 13 gusting 17 21.7
2020-Jan-20 17:20 350 13 gusting 15 21.6
2020-Jan-20 17:10 350 13 gusting 15 21.5
2020-Jan-20 17:00 340 13 gusting 17 21.5
2020-Jan-20 16:50 350 13 gusting 17 21.4
2020-Jan-20 16:40 350 13 gusting 14 21.4
2020-Jan-20 16:30 350 13 gusting 15 21.3
2020-Jan-20 16:20 350 13 gusting 14 21.3
2020-Jan-20 16:10 350 13 gusting 17 21.1
2020-Jan-20 16:00 350 13 gusting 17 21.1
2020-Jan-20 15:50 360 13 gusting 17 21.1
2020-Jan-20 15:40 350 13 gusting 17 21.0
2020-Jan-20 15:30 350 14 gusting 18 21.0
2020-Jan-20 15:20 360 13 gusting 18 21.0
2020-Jan-20 15:10 360 14 gusting 19 21.0
2020-Jan-20 15:00 350 14 gusting 19 21.0
2020-Jan-20 14:50 350 17 gusting 19 21.0
2020-Jan-20 14:40 360 15 gusting 19 21.1
2020-Jan-20 14:30 360 15 gusting 21 21.2
2020-Jan-20 14:20 360 18 gusting 20 21.4
2020-Jan-20 14:10 360 19 gusting 20 21.5
2020-Jan-20 14:00 360 18 gusting 20 21.7
2020-Jan-20 13:50 360 18 gusting 20 21.7
2020-Jan-20 13:40 360 18 gusting 20 21.8
2020-Jan-20 13:30 360 17 gusting 19 21.8
2020-Jan-20 13:20 010 15 gusting 19 21.9
2020-Jan-20 13:10 010 15 gusting 18 22.1
2020-Jan-20 13:00 010 17 gusting 18 22.0
2020-Jan-20 12:50 010 15 gusting 19 22.1
2020-Jan-20 12:40 010 17 gusting 19 22.1
2020-Jan-20 12:30 010 17 gusting 19 22.1
2020-Jan-20 12:20 010 17 gusting 19 22.1
2020-Jan-20 12:10 010 17 gusting 20 22.2
2020-Jan-20 12:00 010 18 gusting 20 22.1
2020-Jan-20 11:50 010 17 gusting 19 22.3
2020-Jan-20 11:40 010 17 gusting 19 22.4
2020-Jan-20 11:30 010 17 gusting 19 22.4
2020-Jan-20 11:20 010 18 gusting 20 22.5
2020-Jan-20 11:10 010 14 gusting 19 22.7
2020-Jan-20 11:00 010 14 gusting 19 22.7
2020-Jan-20 10:50 010 14 gusting 18 22.8
2020-Jan-20 10:40 010 14 gusting 18 22.8
2020-Jan-20 10:30 010 14 gusting 18 22.7
2020-Jan-20 10:20 010 13 gusting 17 22.8
2020-Jan-20 10:10 010 14 gusting 17 22.8
2020-Jan-20 10:00 010 14 gusting 18 22.7
2020-Jan-20 09:50 360 13 gusting 17 22.8
2020-Jan-20 09:40 360 13 gusting 14 22.9
2020-Jan-20 09:30 360 13 gusting 15 22.8
2020-Jan-20 09:20 360 12 gusting 15 22.9
2020-Jan-20 09:10 360 12 gusting 14 22.9
2020-Jan-20 09:00 360 12 gusting 13 22.9
2020-Jan-20 08:50 350 12 gusting 14 23.0
2020-Jan-20 08:40 350 12 gusting 13 23.0
2020-Jan-20 08:30 340 12 gusting 13 23.0
2020-Jan-20 08:20 340 13 gusting 14 23.1
2020-Jan-20 08:10 340 12 gusting 13 23.2
2020-Jan-20 08:00 340 11 gusting 13 23.1
2020-Jan-20 07:50 340 8 gusting 12 23.3
2020-Jan-20 07:40 340 9 gusting 12 23.4
2020-Jan-20 07:30 330 8 gusting 12 23.4
2020-Jan-20 07:20 330 8 gusting 11 23.4
2020-Jan-20 07:10 330 7 gusting 9 23.5
2020-Jan-20 07:00 320 7 gusting 9 23.7
2020-Jan-20 06:50 320 8 gusting 11 23.9
2020-Jan-20 06:40 320 6 gusting 9 24.0
2020-Jan-20 06:30 320 6 gusting 7 24.0
2020-Jan-20 06:20 320 5 gusting 6 24.0
2020-Jan-20 06:10 310 4 gusting 6 24.1
2020-Jan-20 06:00 310 5 gusting 6 24.0
2020-Jan-20 05:50 320 4 gusting 6 24.0
2020-Jan-20 05:40 320 5 gusting 7 24.1
2020-Jan-20 05:30 340 5 gusting 6 24.2
2020-Jan-20 05:20 350 2 gusting 6 24.2
2020-Jan-20 05:10 350 1 gusting 5 24.2
2020-Jan-20 05:00 010 1 gusting 5 24.3
2020-Jan-20 04:50 360 1 gusting 5 24.4
2020-Jan-20 04:40 360 2 gusting 5 24.7
2020-Jan-20 04:30 330 1 gusting 4 24.5
2020-Jan-20 04:20 24.6
2020-Jan-20 04:10 24.6
2020-Jan-20 04:00 320 0 gusting 4 24.6
2020-Jan-20 03:50 320 2 gusting 4 24.6
2020-Jan-20 03:40 310 4 gusting 6 24.8
2020-Jan-20 03:30 290 5 gusting 7 24.9
2020-Jan-20 03:20 290 5 gusting 6 24.8
2020-Jan-20 03:10 300 6 gusting 7 24.8
2020-Jan-20 03:00 300 5 gusting 7 24.8
2020-Jan-20 02:50 280 4 gusting 6 24.9
2020-Jan-20 02:40 280 2 gusting 5 24.9
2020-Jan-20 02:30 280 2 gusting 4 24.9
2020-Jan-20 02:20 290 2 gusting 5 24.9
2020-Jan-20 02:10 360 1 gusting 5 24.9
2020-Jan-20 02:00 300 1 gusting 2 24.8
2020-Jan-20 01:50 310 0 gusting 4 24.8
2020-Jan-20 01:40 300 2 gusting 5 24.8
2020-Jan-20 01:30 300 4 gusting 6 24.8
2020-Jan-20 01:20 290 6 24.8
2020-Jan-20 01:10 290 5 gusting 6 24.8
2020-Jan-20 01:00 260 1 gusting 6 24.9
2020-Jan-20 00:50 250 1 gusting 4 24.8
2020-Jan-20 00:40 220 1 gusting 4 24.8
2020-Jan-20 00:30 190 2 gusting 5 24.8
2020-Jan-20 00:20 180 2 gusting 5 24.8
2020-Jan-20 00:10 150 4 gusting 5 24.7
2020-Jan-20 00:00 150 5 gusting 6 24.7
2020-Jan-19 23:50 130 6 gusting 7 24.6
2020-Jan-19 23:40 120 8 gusting 13 24.6
2020-Jan-19 23:30 120 11 gusting 13 24.7
2020-Jan-19 23:20 120 13 gusting 15 24.6
2020-Jan-19 23:10 110 13 gusting 17 24.6
2020-Jan-19 23:00 110 14 gusting 18 24.5
2020-Jan-19 22:50 110 15 gusting 18 24.4
2020-Jan-19 22:40 110 15 gusting 17 24.3
2020-Jan-19 22:30 110 15 gusting 18 24.1
2020-Jan-19 22:20 110 14 gusting 17 23.8
2020-Jan-19 22:10 120 15 gusting 17 23.7
2020-Jan-19 22:00 120 12 gusting 14 23.4
2020-Jan-19 21:50 120 14 gusting 18 23.0
2020-Jan-19 21:40 120 17 gusting 19 22.8
2020-Jan-19 21:30 110 13 gusting 15 22.8
2020-Jan-19 21:20 080 11 gusting 12 22.5
2020-Jan-19 21:10 090 9 gusting 12 22.4
2020-Jan-19 21:00 110 11 gusting 12 22.3
2020-Jan-19 20:50 120 9 gusting 12 22.3
2020-Jan-19 20:40 140 7 gusting 9 22.2
2020-Jan-19 20:30 140 9 gusting 12 22.1
2020-Jan-19 20:20 140 12 gusting 13 22.1
2020-Jan-19 20:10 140 12 gusting 13 22.1
2020-Jan-19 20:00 140 11 gusting 13 22.0
2020-Jan-19 19:50 140 8 gusting 9 21.9
2020-Jan-19 19:40 130 7 gusting 8 21.9
2020-Jan-19 19:30 130 6 gusting 6 21.8
2020-Jan-19 19:20 140 5 gusting 6 21.8
2020-Jan-19 19:10 120 5 gusting 6 22.1
2020-Jan-19 19:00 140 6 gusting 7 22.3
2020-Jan-19 18:50 150 6 gusting 7 22.4
2020-Jan-19 18:40 180 6 gusting 8 22.6
2020-Jan-19 18:30 200 6 gusting 8 22.5
2020-Jan-19 18:20 220 6 gusting 8 22.3
2020-Jan-19 18:10 220 8 gusting 12 22.3
2020-Jan-19 18:00 210 12 gusting 13 22.1
2020-Jan-19 17:50 210 13 gusting 15 22.3
2020-Jan-19 17:40 190 15 gusting 20 23.1
2020-Jan-19 17:30 160 12 gusting 21 24.6
2020-Jan-19 17:20 150 8 gusting 11 24.7
2020-Jan-19 17:10 160 8 gusting 11 24.7
2020-Jan-19 17:00 160 27 24.6
2020-Jan-19 16:50 160 8 gusting 12 24.5
2020-Jan-19 16:40 160 8 gusting 11 24.3
2020-Jan-19 16:30 150 8 gusting 11 24.1
2020-Jan-19 16:20 140 9 gusting 13 24.1
2020-Jan-19 16:10 150 13 24.0
2020-Jan-19 16:00 150 13 gusting 15 24.1